Location: Ferintosh
(52.7647°N, 112.9692°W)
Time: 09:14:44
(UTC+00:00)

A-11 Canister half - Pass Details

Date: 28 May 2024
Orbit: 1514 x 1685 km, 47.2° (Epoch: 22 June)

Event Time Altitude Azimuth Distance (km) Brightness Sun altitude
Rises 10:47:53 0° 260° (W) 4,765 11.1 -4.1°
Reaches altitude 10° 10:51:01 10° 257° (WSW) 3,759 10.5 -3.8°
Maximum altitude 11:00:19 64° 180° (S) 1,678 9.1 -2.7°
Drops below altitude 10° 11:09:23 10° 102° (ESE) 3,677 11.6 -1.7°
Sets 11:12:25 0° 99° (E) 4,656 12.2 -1.3°
